Topeka, KS

8:07 AM CST on January 22, 2017 (GMT -0600)
Billard Municipal

Weather History for KTOP - July, 2013

Change the Weather History Date:

Saturday, July 20, 2013

  Actual Average Record
Temperature  
Mean Temperature 81 °F 79 °F  
Max Temperature 90 °F 90 °F 109 °F (1934)
Min Temperature 72 °F 69 °F 52 °F (1971)
Degree Days  
Heating Degree Days 0 0  
Month to date heating degree days 0 0  
Since 1 June heating degree days 5 8  
Since 1 July heating degree days 0 0  
Cooling Degree Days 16 14  
Month to date cooling degree days 314 275  
Year to date cooling degree days 796 685  
Since 1 June cooling degree days 651 559  
Growing Degree Days 32 (Base 50)    
Moisture  
Dew Point 71 °F    
Average Humidity 74    
Maximum Humidity 93    
Minimum Humidity 55    
Precipitation  
Precipitation 0.05 in 0.11 in 2.44 in (1973)
Month to date precipitation 0.24 2.58  
Year to date precipitation 17.72 21.09  
Snow  
Snow 0.00 in 0.00 in 0.00 in ()
Month to date snowfall 0.0 0.0  
Year to date snowfall 24.2 11.3  
Since 1 July snowfall 0.0 0.0  
Snow Depth 0.00 in    
Sea Level Pressure  
Sea Level Pressure 29.89 in    
Wind  
Wind Speed 5 mph (ESE)    
Max Wind Speed 24 mph    
Max Gust Speed 30 mph    
Visibility 10 miles    
Events Rain , Thunderstorm    
T = Trace of Precipitation, MM = Missing Value Source: NWS Daily Summary

Daily Weather History Graph

Daily Weather History Graph

Search for Another Location

Airport or City:

Trip Planner

Search our weather history database for the weather conditions in past years. The results will help you decide how hot, cold, wet, or windy it might be!

Date:

Astronomy

Jul. 20, 2013 Rise Set
Actual Time 6:13 AM CDT 8:44 PM CDT
Civil Twilight 5:42 AM CDT 9:14 PM CDT
Nautical Twilight 5:03 AM CDT 9:53 PM CDT
Astronomical Twilight 4:21 AM CDT 10:35 PM CDT
Moon 6:48 PM CDT (7/20) 3:53 AM CDT (7/20)
Length of Visible Light 15h 32m
Length of Day
14h 31m
Waxing Gibbous, 94% of the Moon is Illuminated
Jul 20
Waxing Gibbous
Jul 22
Full
Jul 29
Last Quarter
Aug 6
New
Aug 14
First Quarter

Hourly Weather History & Observations

Time (CDT) Temp. Heat Index Dew Point Humidity Pressure Visibility Wind Dir Wind Speed Gust Speed Precip Events Conditions
12:53 AM 77.0 °F - 70.0 °F 79% 29.88 in 10.0 mi West 5.8 mph - N/A   Clear
1:53 AM 77.0 °F - 71.1 °F 82% 29.89 in 10.0 mi Calm Calm - N/A   Clear
2:53 AM 75.9 °F - 72.0 °F 87% 29.88 in 10.0 mi South 4.6 mph - N/A   Clear
3:53 AM 75.0 °F - 72.0 °F 90% 29.87 in 10.0 mi Calm Calm - N/A   Clear
4:53 AM 75.0 °F - 72.0 °F 90% 29.88 in 10.0 mi Calm Calm - N/A   Clear
5:53 AM 73.9 °F - 71.1 °F 91% 29.88 in 10.0 mi NNE 3.5 mph - N/A   Mostly Cloudy
6:43 AM 75.0 °F - 71.1 °F 87% 29.93 in 10.0 mi SE 5.8 mph - N/A Thunderstorm Overcast
6:53 AM 75.9 °F - 71.1 °F 85% 29.90 in 10.0 mi SE 4.6 mph - N/A   Overcast
7:53 AM 75.9 °F - 70.0 °F 82% 29.90 in 10.0 mi SE 3.5 mph - 0.00 in   Scattered Clouds
8:53 AM 78.1 °F - 69.1 °F 74% 29.89 in 10.0 mi South 5.8 mph - N/A   Mostly Cloudy
9:53 AM 81.0 °F 84.4 °F 70.0 °F 69% 29.90 in 10.0 mi SSE 4.6 mph - N/A   Overcast
10:53 AM 81.0 °F 84.9 °F 71.1 °F 72% 29.90 in 10.0 mi NNE 9.2 mph - 0.00 in Rain Light Rain
11:53 AM 84.9 °F 90.1 °F 71.1 °F 63% 29.90 in 10.0 mi East 8.1 mph - 0.00 in   Clear
12:53 PM 88.0 °F 92.1 °F 69.1 °F 53% 29.89 in 10.0 mi North - - N/A   Partly Cloudy
1:53 PM 87.1 °F 92.0 °F 70.0 °F 57% 29.89 in 10.0 mi SE 4.6 mph - N/A   Mostly Cloudy
2:09 PM 87.1 °F 92.0 °F 70.0 °F 57% 29.91 in 10.0 mi ENE 5.8 mph - N/A Thunderstorm Overcast
2:24 PM 84.0 °F 89.6 °F 72.0 °F 67% 29.90 in 10.0 mi NNE 19.6 mph - N/A   Mostly Cloudy
2:53 PM 81.0 °F 84.4 °F 70.0 °F 69% 29.90 in 10.0 mi NE 13.8 mph - N/A   Scattered Clouds
3:53 PM 78.1 °F - 70.0 °F 76% 29.88 in 10.0 mi ENE 10.4 mph - N/A   Clear
4:53 PM 78.1 °F - 72.0 °F 81% 29.90 in 10.0 mi NNW 10.4 mph - 0.00 in   Partly Cloudy
5:37 PM 78.1 °F - 70.0 °F 76% 29.92 in 10.0 mi South 8.1 mph - N/A Thunderstorm Partly Cloudy
5:53 PM 78.1 °F - 72.0 °F 81% 29.89 in 10.0 mi SSW 4.6 mph - 0.00 in Rain Light Rain
6:53 PM 75.9 °F - 71.1 °F 85% 29.87 in 10.0 mi SSE 3.5 mph - 0.05 in Rain Light Rain
7:53 PM 75.0 °F - 71.1 °F 87% 29.84 in 10.0 mi East 6.9 mph - 0.00 in   Clear
8:53 PM 75.0 °F - 69.1 °F 82% 29.84 in 10.0 mi ENE 4.6 mph - N/A   Scattered Clouds
9:53 PM 73.9 °F - 70.0 °F 87% 29.89 in 10.0 mi Calm Calm - 0.00 in   Clear
10:53 PM 73.0 °F - 69.1 °F 87% 29.91 in 10.0 mi Calm Calm - N/A   Partly Cloudy
11:53 PM 73.0 °F - 69.1 °F 87% 29.91 in 10.0 mi Calm Calm - N/A   Clear